User: anonymous   Login
Location: Fairmont
(43.6520°N, 94.4610°W)
Time: 23:02:51
(UTC-06:00)
Language:

Cosmos-2242 - Orbit

View from above orbital plane
View from above orbital plane
View from above satellite
View from above satellite

Ground track
Ground track

The orbit data is extracted from the following two-line orbital elements,

1 22626U 93024A   17022.84757950 +.00000260 +00000-0 +25839-4 0  9992
2 22626 082.5221 178.8249 0017857 241.0949 118.8477 14.87596470284243
Epoch (UTC): 22 January 2017 20:20:30
Eccentricity: 0.0017857
inclination: 82.5221°
perigee height: 593 km
apogee height: 618 km
right ascension of ascending node: 178.8249°
argument of perigee: 241.0949°
revolutions per day: 14.87596470
mean anomaly at epoch: 118.8477°
orbit number at epoch: 28424

The dashed part of the orbit path shows where the satellite is in the earth's shadow,  

DLR